User: anonymous
Location: Long Point Provincial Park
(42.5794°N, 80.4103°W)
Time: 08:13:16
(UTC-04:00)
Language:

Iridium 19 - Orbit

View from above orbital plane
View from above orbital plane
View from above satellite
View from above satellite

Ground track
Ground track

The orbit data is extracted from the following two-line orbital elements,

1 24965U 97056A   14264.40938975  .00000417  00000-0  14190-3 0  9467
2 24965 086.4010 016.5929 0002280 112.6306 247.5131 14.34213089889250
Epoch (UTC): 21 September 2014 09:49:31
Eccentricity: 0.0002280
inclination: 86.4010°
perigee height: 776 km
apogee height: 779 km
right ascension of ascending node: 16.5929°
argument of perigee: 112.6306°
revolutions per day: 14.34213089
mean anomaly at epoch: 247.5131°
orbit number at epoch: 88925

The dashed part of the orbit path shows where the satellite is in the earth's shadow,  

DLR